Tracking 17147 objects as of 4-July-2015
HD Live streaming from Space Station

COSMOS 2128

Track COSMOS 2128 now!
10-day predictions
COSMOS 2128 is classified as:


NORAD ID: 21103
Int'l Code: 1991-009D
Perigee: 1,452.1 km
Apogee: 1,475.6 km
Inclination: 74.0 °
Period: 115.0 minutes
Semi major axis: 7834 km
RCS: 0.6873 m2 (medium)
Launch date: February 12, 1991
Source: Commonwealth of Independent States (former USSR) (CIS)
Your satellite tracking list
Your tracking list is empty





NASA's NSSDC Master Catalog

Two Line Element Set (TLE):
1 21103U 91009D   15184.14156831 -.00000017  00000-0 -54900-5 0  9997
2 21103 074.0274 194.9411 0014987 351.4941 072.2816 12.51867867114595

Source of the keplerian elements: AFSPC

N2YO: 254